Location: Newark
(31.5350°N, 35.0986°E)
Time: 19:55:41
(UTC+00:00)

S-56A Canister/Altair - Visible Passes

Search period start: 15 September 2019 00:00
Search period end: 25 September 2019 00:00
Orbit: 633 x 2499 km, 38.9° (Epoch: 14 September)

Date Brightness Start Highest point End Pass type
(mag) Time Alt. Az. Time Alt. Az. Time Alt. Az.
15 Sep 9.1 17:28:05 10° WNW 17:34:40 34° SW 17:37:11 23° S visible
16 Sep 9.0 16:54:30 10° WNW 17:02:07 42° SW 17:06:30 15° SSE visible
17 Sep 9.0 16:20:54 10° WNW 16:29:31 52° SW 16:35:16 10° SE visible
18 Sep 10.4 17:57:58 10° WSW 17:59:19 11° SW 18:00:35 10° SW visible
19 Sep 10.2 17:22:40 10° W 17:26:50 15° SW 17:30:19 10° SSW visible
20 Sep 10.2 16:48:22 10° W 16:54:20 21° SW 16:58:58 10° S visible
21 Sep 10.2 16:14:17 10° W 16:21:46 27° SW 16:27:17 10° S visible
